Overview Statistics Trail Chart Weather Telemetry Raw packets
 

This is the latest recevied weather packets stored in our database for station/object KL4TQ. If no packets are shown the sender has not sent any weather packets the latest 10 day(s).

<< 77 78 79 80 81 82 83 >>
Time Temp. Humidity Pressure Rain* Wind** Luminosity Snow
1777138278 5° C 70% 857 hPa 0 mm - 378 W/m² -
1777137968 5° C 70% 857 hPa 0 mm - 366 W/m² -
1777137669 5° C 71% 857 hPa 0 mm - 352 W/m² -
1777137369 4.44° C 72% 857 hPa 0 mm - 343 W/m² -
1777137069 4.44° C 73% 857 hPa 0 mm - 330 W/m² -
1777136769 4.44° C 72% 857 hPa 0 mm - 319 W/m² -
1777136468 4.44° C 73% 857 hPa 0 mm - 320 W/m² -
1777136168 4.44° C 73% 857 hPa 0 mm - 297 W/m² -
1777135869 4.44° C 73% 857 hPa 0 mm - 285 W/m² -
1777135568 3.89° C 74% 857 hPa 0 mm - 276 W/m² -
1777135268 3.89° C 74% 857 hPa 0 mm - 265 W/m² -
1777134968 3.33° C 75% 857 hPa 0 mm - 261 W/m² -
1777134668 2.78° C 77% 856 hPa 0 mm - 121 W/m² -
1777134368 2.78° C 77% 856 hPa 0 mm - 78 W/m² -
1777134069 3.33° C 77% 857 hPa 0 mm - 81 W/m² -
1777133768 3.33° C 75% 857 hPa 0 mm - 120 W/m² -
1777133468 3.33° C 75% 857 hPa 0 mm - 256 W/m² -
1777133168 2.78° C 76% 857 hPa 0 mm - 259 W/m² -
1777132868 2.78° C 78% 857 hPa 0 mm - 209 W/m² -
1777132569 2.22° C 80% 857 hPa 0 mm - 164 W/m² -
1777132268 2.78° C 80% 857 hPa 0 mm - 110 W/m² -
1777131971 2.78° C 79% 857 hPa 0 mm - 103 W/m² -
1777131668 2.78° C 78% 857 hPa 0 mm - 95 W/m² -
1777131368 2.78° C 79% 857 hPa 0 mm - 84 W/m² -
1777131068 2.78° C 78% 857 hPa 0 mm - 53 W/m² -

* Rain latest hour (hover to see other rain measurements)
** Current wind speed in m/s (hover to see current wind gust speed)